* Astronomy

Members Login
Username 
 
Password 
    Remember Me  
Post Info TOPIC: Asteroid 2012 UC34


L

Posts: 131433
Date:
Asteroid 2012 UC34
Permalink  
 


Orbital elements:
2012 UC34                                                Earth MOID = 0.0447 AU
Epoch 2012 Sept. 30.0 TT = JDT 2456200.5                MPC
M  42.02146              (2000.0)            P               Q
n   0.64657338     Peri.  264.25419     +0.46229771     +0.88505694
a   1.3245169      Node    33.45415     -0.76953120     +0.43090300
e   0.3177415      Incl.    5.65909     -0.44057072     +0.17605912
P   1.52           H   22.9           G   0.15           U   8

MPEC 2012 - U59



__________________
Page 1 of 1  sorted by
 
Quick Reply

Please log in to post quick replies.



Create your own FREE Forum
Report Abuse
Powered by ActiveBoard